RYR1KM EICK-BIAR

Flight info

Callsign RYR1KM
Flight time 2h 13m
Altitude 36000
Route KURUM1S KURUM DCT SHA DCT REVNU/N0446F350 DCT NIBOG DCT OSBOX/M078F350 DCT 64N020W DCT NB DCT
Aircraft A320/M-SDE3FGHIRWY/LB1

Departure

Time 2026-05-07 19:03
Airport Cork International Airport (EICK)

Arrival

Time 2026-05-07 21:16
Airport Akureyri International Airport (BIAR)
Time Latitude Longitude Altitude Speed Heading
2026-05-07 18:47 51.84981 -8.49127 503 ft 0 kts 70°
2026-05-07 18:54 51.84978 -8.49137 503 ft 2 kts 70°
2026-05-07 18:54 51.84972 -8.49163 503 ft 2 kts 70°
2026-05-07 18:54 51.84967 -8.49189 503 ft 2 kts 70°
2026-05-07 18:55 51.84961 -8.49215 503 ft 2 kts 70°
2026-05-07 18:55 51.84954 -8.49240 503 ft 2 kts 62°
2026-05-07 18:55 51.84948 -8.49265 503 ft 2 kts 34°
2026-05-07 18:55 51.84937 -8.49272 503 ft 0 kts 352°
2026-05-07 18:56 51.84940 -8.49273 503 ft 2 kts 352°
2026-05-07 18:57 51.84981 -8.49285 503 ft 2 kts 342°
2026-05-07 18:57 51.85045 -8.49326 503 ft 13 kts 338°
2026-05-07 18:57 51.85133 -8.49386 502 ft 14 kts 321°
2026-05-07 18:57 51.85114 -8.49500 493 ft 2 kts 203°
2026-05-07 19:01 51.85049 -8.49551 482 ft 21 kts 216°
2026-05-07 19:01 51.84994 -8.49618 486 ft 0 kts 163°
2026-05-07 19:01 51.84993 -8.49617 486 ft 0 kts 157°
2026-05-07 19:02 51.84990 -8.49615 486 ft 3 kts 159°
2026-05-07 19:02 51.84796 -8.49501 485 ft 66 kts 161°
2026-05-07 19:02 51.84117 -8.49107 478 ft 138 kts 159°
2026-05-07 19:02 51.83092 -8.48498 860 ft 157 kts 163°
2026-05-07 19:03 51.82115 -8.47928 1869 ft 145 kts 165°
2026-05-07 19:03 51.81096 -8.47372 2330 ft 164 kts 167°
2026-05-07 19:03 51.79931 -8.46811 2507 ft 186 kts 167°
2026-05-07 19:03 51.78600 -8.46649 2692 ft 203 kts 200°
2026-05-07 19:04 51.77472 -8.48103 2949 ft 223 kts 242°
2026-05-07 19:04 51.77146 -8.50651 3337 ft 246 kts 269°
2026-05-07 19:04 51.77285 -8.53451 4060 ft 254 kts 282°
2026-05-07 19:04 51.78020 -8.56070 4826 ft 262 kts 307°
2026-05-07 19:05 51.79426 -8.57908 5647 ft 269 kts 333°
2026-05-07 19:05 51.81136 -8.59203 6493 ft 272 kts 335°
2026-05-07 19:05 51.82871 -8.60472 7252 ft 276 kts 334°
2026-05-07 19:05 51.84632 -8.61752 8001 ft 280 kts 334°
2026-05-07 19:06 51.86421 -8.63057 8754 ft 283 kts 333°
2026-05-07 19:06 51.90053 -8.65730 10204 ft 293 kts 333°
2026-05-07 19:06 51.91971 -8.67154 10391 ft 315 kts 333°
2026-05-07 19:07 51.94041 -8.68691 10518 ft 337 kts 333°
2026-05-07 19:07 51.96213 -8.70303 10861 ft 349 kts 333°
2026-05-07 19:07 51.98442 -8.71952 11459 ft 354 kts 333°
2026-05-07 19:07 52.00697 -8.73624 12065 ft 357 kts 333°
2026-05-07 19:08 52.02971 -8.75315 12683 ft 361 kts 332°
2026-05-07 19:08 52.05264 -8.77022 13304 ft 365 kts 332°
2026-05-07 19:08 52.07585 -8.78752 13907 ft 368 kts 332°
2026-05-07 19:08 52.09925 -8.80498 14449 ft 372 kts 332°
2026-05-07 19:09 52.12281 -8.82259 14978 ft 375 kts 332°
2026-05-07 19:09 52.14661 -8.84040 15508 ft 378 kts 332°
2026-05-07 19:09 52.17055 -8.85834 16039 ft 381 kts 332°
2026-05-07 19:09 52.19473 -8.87650 16576 ft 384 kts 332°
2026-05-07 19:10 52.21911 -8.89484 17110 ft 387 kts 332°
2026-05-07 19:10 52.24357 -8.91324 17647 ft 391 kts 332°
2026-05-07 19:10 52.26842 -8.93198 18215 ft 394 kts 332°
2026-05-07 19:10 52.29304 -8.95062 18710 ft 397 kts 332°
2026-05-07 19:11 52.31822 -8.96968 19204 ft 400 kts 332°
2026-05-07 19:11 52.34354 -8.98884 19706 ft 403 kts 332°
2026-05-07 19:11 52.36909 -9.00818 20216 ft 406 kts 332°
2026-05-07 19:11 52.39482 -9.02765 20705 ft 409 kts 332°
2026-05-07 19:12 52.42058 -9.04712 21189 ft 412 kts 332°
2026-05-07 19:12 52.44674 -9.06697 21650 ft 414 kts 332°
2026-05-07 19:12 52.47300 -9.08697 22091 ft 416 kts 332°
2026-05-07 19:12 52.49936 -9.10707 22527 ft 419 kts 332°
2026-05-07 19:13 52.52584 -9.12729 22944 ft 422 kts 332°
2026-05-07 19:13 52.55257 -9.14773 23358 ft 425 kts 332°
2026-05-07 19:13 52.57941 -9.16827 23727 ft 427 kts 332°
2026-05-07 19:13 52.60647 -9.18898 24075 ft 429 kts 332°
2026-05-07 19:14 52.63359 -9.20979 24429 ft 431 kts 332°
2026-05-07 19:14 52.66076 -9.23065 24780 ft 433 kts 331°
2026-05-07 19:14 52.68818 -9.25175 25071 ft 435 kts 331°
2026-05-07 19:14 52.71565 -9.27294 25408 ft 437 kts 331°
2026-05-07 19:15 52.74321 -9.29418 25731 ft 438 kts 331°
2026-05-07 19:15 52.77092 -9.31555 26054 ft 440 kts 331°
2026-05-07 19:15 52.79861 -9.33696 26350 ft 443 kts 331°
2026-05-07 19:15 52.82679 -9.35880 26477 ft 449 kts 331°
2026-05-07 19:16 52.85535 -9.38100 26615 ft 455 kts 331°
2026-05-07 19:16 52.88415 -9.40337 26757 ft 460 kts 331°
2026-05-07 19:16 52.91323 -9.42595 26887 ft 465 kts 331°
2026-05-07 19:16 52.94274 -9.44890 27023 ft 469 kts 331°
2026-05-07 19:17 52.97242 -9.47210 27151 ft 472 kts 331°
2026-05-07 19:17 53.00225 -9.49543 27285 ft 475 kts 331°
2026-05-07 19:17 53.03222 -9.51887 27423 ft 477 kts 331°
2026-05-07 19:17 53.06228 -9.54243 27647 ft 477 kts 331°
2026-05-07 19:18 53.09224 -9.56598 27875 ft 477 kts 331°
2026-05-07 19:18 53.12220 -9.58960 28127 ft 476 kts 331°
2026-05-07 19:18 53.15211 -9.61319 28379 ft 475 kts 331°
2026-05-07 19:18 53.18178 -9.63655 28627 ft 475 kts 331°
2026-05-07 19:19 53.21147 -9.65996 28876 ft 474 kts 331°
2026-05-07 19:19 53.24112 -9.68341 29144 ft 474 kts 331°
2026-05-07 19:19 53.27101 -9.70712 29413 ft 473 kts 331°
2026-05-07 19:19 53.30076 -9.73072 29691 ft 472 kts 331°
2026-05-07 19:20 53.33046 -9.75428 29962 ft 472 kts 331°
2026-05-07 19:20 53.36009 -9.77780 30213 ft 472 kts 330°
2026-05-07 19:20 53.38976 -9.80142 30416 ft 472 kts 330°
2026-05-07 19:20 53.41941 -9.82510 30632 ft 472 kts 330°
2026-05-07 19:21 53.44910 -9.84888 30862 ft 472 kts 330°
2026-05-07 19:21 53.47875 -9.87269 31085 ft 472 kts 330°
2026-05-07 19:21 53.50840 -9.89648 31307 ft 472 kts 330°
2026-05-07 19:21 53.53802 -9.92028 31548 ft 472 kts 330°
2026-05-07 19:22 53.56759 -9.94405 31789 ft 471 kts 330°
2026-05-07 19:22 53.59718 -9.96786 32045 ft 471 kts 329°
2026-05-07 19:22 53.62669 -9.99167 32259 ft 471 kts 329°
2026-05-07 19:22 53.65565 -10.01509 32482 ft 471 kts 329°
2026-05-07 19:23 53.68544 -10.03922 32718 ft 470 kts 329°
2026-05-07 19:23 53.71492 -10.06315 32951 ft 470 kts 329°
2026-05-07 19:23 53.74437 -10.08715 33183 ft 469 kts 329°
2026-05-07 19:23 53.77297 -10.11049 33412 ft 469 kts 329°
2026-05-07 19:24 53.80237 -10.13448 33655 ft 468 kts 329°
2026-05-07 19:24 53.82817 -10.15556 33894 ft 468 kts 329°
2026-05-07 19:24 53.85756 -10.17960 34060 ft 469 kts 329°
2026-05-07 19:24 53.88281 -10.20026 34216 ft 469 kts 329°
2026-05-07 19:25 53.90900 -10.22167 34377 ft 469 kts 329°
2026-05-07 19:25 53.93733 -10.24488 34558 ft 469 kts 329°
2026-05-07 19:25 53.96548 -10.26801 34743 ft 469 kts 329°
2026-05-07 19:25 53.99202 -10.28985 34919 ft 469 kts 329°
2026-05-07 19:26 54.02117 -10.31387 35114 ft 469 kts 329°
2026-05-07 19:26 54.04773 -10.33583 35287 ft 469 kts 329°
2026-05-07 19:26 54.06644 -10.35131 35434 ft 469 kts 329°
2026-05-07 19:26 54.09401 -10.37416 35592 ft 469 kts 329°
2026-05-07 19:27 54.12310 -10.39831 35771 ft 469 kts 329°
2026-05-07 19:27 54.14977 -10.42044 35914 ft 470 kts 329°
2026-05-07 19:27 54.20185 -10.46374 35959 ft 470 kts 329°
2026-05-07 19:28 54.24011 -10.49571 35958 ft 470 kts 329°
2026-05-07 19:28 54.28248 -10.53117 35958 ft 469 kts 329°
2026-05-07 19:29 54.33107 -10.57189 35952 ft 469 kts 329°
2026-05-07 19:29 54.35963 -10.59585 35956 ft 469 kts 329°
2026-05-07 19:30 54.40945 -10.63773 35956 ft 470 kts 329°
2026-05-07 19:30 54.46739 -10.68667 35962 ft 470 kts 329°
2026-05-07 19:31 54.52489 -10.73551 35961 ft 470 kts 329°
2026-05-07 19:31 54.58256 -10.78451 35979 ft 470 kts 329°
2026-05-07 19:32 54.64037 -10.83370 35975 ft 470 kts 329°
2026-05-07 19:32 54.69807 -10.88293 35978 ft 470 kts 329°
2026-05-07 19:33 54.75536 -10.93204 35975 ft 469 kts 329°
2026-05-07 19:33 54.81320 -10.98198 35983 ft 469 kts 329°
2026-05-07 19:34 54.87137 -11.03224 35975 ft 469 kts 329°
2026-05-07 19:34 54.92875 -11.08173 35967 ft 469 kts 329°
2026-05-07 19:35 54.97564 -11.12244 35960 ft 469 kts 329°
2026-05-07 19:35 55.03305 -11.17251 35982 ft 469 kts 329°
2026-05-07 19:36 55.09145 -11.22354 35977 ft 469 kts 329°
2026-05-07 19:36 55.15923 -11.28301 35957 ft 470 kts 329°
2026-05-07 19:37 55.20736 -11.32546 35956 ft 470 kts 329°
2026-05-07 19:37 55.26383 -11.37534 35967 ft 470 kts 329°
2026-05-07 19:38 55.31737 -11.42260 35948 ft 471 kts 329°
2026-05-07 19:38 55.36876 -11.46812 35938 ft 471 kts 328°
2026-05-07 19:39 55.42114 -11.51478 35933 ft 472 kts 328°
2026-05-07 19:39 55.47897 -11.56649 35930 ft 472 kts 328°
2026-05-07 19:40 55.53692 -11.61846 35932 ft 472 kts 328°
2026-05-07 19:40 55.59539 -11.67098 35931 ft 473 kts 328°
2026-05-07 19:41 55.65398 -11.72379 35934 ft 473 kts 328°
2026-05-07 19:41 55.71239 -11.77679 35937 ft 473 kts 328°
2026-05-07 19:42 55.77097 -11.83013 35958 ft 473 kts 328°
2026-05-07 19:42 55.82278 -11.87743 35947 ft 473 kts 328°
2026-05-07 19:43 55.85085 -11.90304 35936 ft 473 kts 328°
2026-05-07 19:43 55.87753 -11.92738 35934 ft 474 kts 328°
2026-05-07 19:44 55.90393 -11.95146 35933 ft 474 kts 328°
2026-05-07 19:44 55.94768 -11.99159 35922 ft 474 kts 328°
2026-05-07 19:45 55.97399 -12.01583 35922 ft 474 kts 328°
2026-05-07 19:45 56.00057 -12.04036 35945 ft 474 kts 328°
2026-05-07 19:46 56.02865 -12.06634 35941 ft 474 kts 328°
2026-05-07 19:46 56.06842 -12.10314 35933 ft 474 kts 328°
2026-05-07 19:47 56.12268 -12.15346 35930 ft 473 kts 328°
2026-05-07 19:47 56.16771 -12.19535 35918 ft 473 kts 328°
2026-05-07 19:48 56.22295 -12.24693 35919 ft 473 kts 328°
2026-05-07 19:48 56.26832 -12.28929 35929 ft 472 kts 328°
2026-05-07 19:49 56.32185 -12.33947 35921 ft 472 kts 328°
2026-05-07 19:49 56.38008 -12.39410 35909 ft 471 kts 328°
2026-05-07 19:50 56.43818 -12.44905 35900 ft 471 kts 328°
2026-05-07 19:50 56.49618 -12.50414 35919 ft 471 kts 327°
2026-05-07 19:51 56.55422 -12.55938 35889 ft 471 kts 328°
2026-05-07 19:51 56.61217 -12.61473 35887 ft 471 kts 328°
2026-05-07 19:52 56.67009 -12.67017 35891 ft 471 kts 327°
2026-05-07 19:52 56.72799 -12.72572 35885 ft 470 kts 328°
2026-05-07 19:53 56.78575 -12.78154 35881 ft 470 kts 328°
2026-05-07 19:53 56.84418 -12.83534 35867 ft 472 kts 331°
2026-05-07 19:54 56.90486 -12.88205 35865 ft 474 kts 333°
2026-05-07 19:54 56.96554 -12.92682 35858 ft 473 kts 333°
2026-05-07 19:55 57.02615 -12.97377 35874 ft 472 kts 332°
2026-05-07 19:55 57.08631 -13.02222 35860 ft 472 kts 332°
2026-05-07 19:56 57.14658 -13.07086 35842 ft 473 kts 332°
2026-05-07 19:56 57.20696 -13.11923 35839 ft 473 kts 332°
2026-05-07 19:57 57.26737 -13.16752 35846 ft 473 kts 333°
2026-05-07 19:57 57.32766 -13.21599 35838 ft 473 kts 331°
2026-05-07 19:58 57.38789 -13.26484 35851 ft 472 kts 333°
2026-05-07 19:58 57.44802 -13.31368 35842 ft 471 kts 333°
2026-05-07 19:59 57.50802 -13.36266 35856 ft 471 kts 330°
2026-05-07 19:59 57.56794 -13.41166 35831 ft 470 kts 333°
2026-05-07 20:00 57.62775 -13.46084 35828 ft 470 kts 332°
2026-05-07 20:00 57.68757 -13.51009 35814 ft 470 kts 333°
2026-05-07 20:01 57.74726 -13.55948 35815 ft 469 kts 332°
2026-05-07 20:01 57.80708 -13.60890 35813 ft 469 kts 332°
2026-05-07 20:02 57.86664 -13.65839 35806 ft 468 kts 329°
2026-05-07 20:02 57.92618 -13.70829 35800 ft 468 kts 330°
2026-05-07 20:03 57.98565 -13.75829 35794 ft 468 kts 331°
2026-05-07 20:03 58.04520 -13.80839 35798 ft 468 kts 332°
2026-05-07 20:04 58.10472 -13.85859 35791 ft 468 kts 330°
2026-05-07 20:04 58.16372 -13.90859 35784 ft 468 kts 330°
2026-05-07 20:05 58.22308 -13.95926 35809 ft 468 kts 333°
2026-05-07 20:05 58.28242 -14.01005 35823 ft 468 kts 331°
2026-05-07 20:06 58.34175 -14.06096 35817 ft 468 kts 329°
2026-05-07 20:06 58.40106 -14.11190 35812 ft 467 kts 330°
2026-05-07 20:07 58.46031 -14.16296 35811 ft 467 kts 330°
2026-05-07 20:07 58.51950 -14.21432 35809 ft 467 kts 331°
2026-05-07 20:08 58.57823 -14.26533 35822 ft 467 kts 331°
2026-05-07 20:08 58.63738 -14.31692 35818 ft 467 kts 332°
2026-05-07 20:09 58.69639 -14.36876 35817 ft 466 kts 333°
2026-05-07 20:10 58.78489 -14.44698 35815 ft 466 kts 330°
2026-05-07 20:10 58.84391 -14.49912 35832 ft 466 kts 331°
2026-05-07 20:11 58.90278 -14.55137 35830 ft 466 kts 333°
2026-05-07 20:11 58.96158 -14.60384 35831 ft 465 kts 331°
2026-05-07 20:12 59.02033 -14.65645 35833 ft 465 kts 332°
2026-05-07 20:12 59.07913 -14.70923 35865 ft 465 kts 333°
2026-05-07 20:13 59.13783 -14.76215 35872 ft 464 kts 332°
2026-05-07 20:13 59.19642 -14.81504 35869 ft 464 kts 331°
2026-05-07 20:14 59.25495 -14.86844 35877 ft 463 kts 333°
2026-05-07 20:14 59.31300 -14.92150 35874 ft 463 kts 332°
2026-05-07 20:15 59.37137 -14.97494 35891 ft 463 kts 333°
2026-05-07 20:15 59.42965 -15.02843 35895 ft 462 kts 332°
2026-05-07 20:16 59.48784 -15.08205 35888 ft 462 kts 331°
2026-05-07 20:16 59.54594 -15.13590 35899 ft 461 kts 334°
2026-05-07 20:17 59.60373 -15.18973 35904 ft 460 kts 332°
2026-05-07 20:17 59.66158 -15.24389 35905 ft 460 kts 332°
2026-05-07 20:18 59.71952 -15.29801 35903 ft 460 kts 333°
2026-05-07 20:18 59.77749 -15.35235 35912 ft 461 kts 332°
2026-05-07 20:19 59.83544 -15.40700 35908 ft 461 kts 333°
2026-05-07 20:19 59.89332 -15.46189 35918 ft 461 kts 332°
2026-05-07 20:20 59.95121 -15.51705 35939 ft 462 kts 332°
2026-05-07 20:20 60.00913 -15.57249 35952 ft 462 kts 332°
2026-05-07 20:21 60.06670 -15.62761 35956 ft 462 kts 333°
2026-05-07 20:21 60.12468 -15.68346 35962 ft 462 kts 333°
2026-05-07 20:22 60.18262 -15.73966 35978 ft 462 kts 332°
2026-05-07 20:22 60.24063 -15.79592 35975 ft 463 kts 333°
2026-05-07 20:23 60.29860 -15.85216 35984 ft 462 kts 332°
2026-05-07 20:23 60.35646 -15.90882 35977 ft 462 kts 332°
2026-05-07 20:24 60.40452 -15.95617 35994 ft 462 kts 332°
2026-05-07 20:24 60.46234 -16.01323 35996 ft 462 kts 332°
2026-05-07 20:25 60.52057 -16.07083 36000 ft 462 kts 333°
2026-05-07 20:25 60.57787 -16.12761 36003 ft 461 kts 332°
2026-05-07 20:26 60.63565 -16.18500 36004 ft 462 kts 332°
2026-05-07 20:26 60.69325 -16.24267 36014 ft 461 kts 333°
2026-05-07 20:27 60.75083 -16.30069 36024 ft 461 kts 332°
2026-05-07 20:27 60.80841 -16.35894 36028 ft 462 kts 332°
2026-05-07 20:28 60.86599 -16.41722 36041 ft 461 kts 332°
2026-05-07 20:28 60.92356 -16.47575 36039 ft 462 kts 333°
2026-05-07 20:29 60.98109 -16.53451 36041 ft 461 kts 333°
2026-05-07 20:29 61.03859 -16.59337 36044 ft 461 kts 333°
2026-05-07 20:30 61.09600 -16.65259 36043 ft 461 kts 332°
2026-05-07 20:30 61.15340 -16.71201 36055 ft 461 kts 333°
2026-05-07 20:31 61.21040 -16.77109 36062 ft 461 kts 333°
2026-05-07 20:31 61.26785 -16.83093 36062 ft 462 kts 333°
2026-05-07 20:32 61.32524 -16.89092 36063 ft 461 kts 333°
2026-05-07 20:32 61.38251 -16.95128 36079 ft 461 kts 333°
2026-05-07 20:33 61.43980 -17.01178 36073 ft 461 kts 333°
2026-05-07 20:33 61.49696 -17.07229 36088 ft 460 kts 333°
2026-05-07 20:34 61.55406 -17.13289 36083 ft 459 kts 333°
2026-05-07 20:34 61.61095 -17.19376 36097 ft 458 kts 333°
2026-05-07 20:35 61.66764 -17.25482 36101 ft 458 kts 333°
2026-05-07 20:35 61.72392 -17.31548 36117 ft 456 kts 333°
2026-05-07 20:36 61.78039 -17.37644 36122 ft 455 kts 333°
2026-05-07 20:36 61.83669 -17.43759 36127 ft 455 kts 333°
2026-05-07 20:37 61.89290 -17.49906 36133 ft 454 kts 333°
2026-05-07 20:37 61.94894 -17.56046 36136 ft 453 kts 333°
2026-05-07 20:38 62.00495 -17.62201 36142 ft 452 kts 333°
2026-05-07 20:38 62.06081 -17.68364 36140 ft 452 kts 333°
2026-05-07 20:39 62.11659 -17.74540 36148 ft 451 kts 333°
2026-05-07 20:39 62.17219 -17.80741 36156 ft 450 kts 333°
2026-05-07 20:40 62.22739 -17.86915 36150 ft 450 kts 333°
2026-05-07 20:40 62.28311 -17.93181 36151 ft 449 kts 333°
2026-05-07 20:41 62.33843 -17.99429 36158 ft 449 kts 333°
2026-05-07 20:41 62.39324 -18.05640 36156 ft 448 kts 333°
2026-05-07 20:42 62.44857 -18.11932 36152 ft 448 kts 333°
2026-05-07 20:42 62.50335 -18.18186 36150 ft 448 kts 333°
2026-05-07 20:43 62.55845 -18.24505 36148 ft 448 kts 333°
2026-05-07 20:43 62.61359 -18.30856 36144 ft 449 kts 333°
2026-05-07 20:44 62.66882 -18.37241 36148 ft 450 kts 332°
2026-05-07 20:44 62.72379 -18.43615 36159 ft 451 kts 333°
2026-05-07 20:45 62.77927 -18.50086 36163 ft 452 kts 332°
2026-05-07 20:45 62.83477 -18.56610 36156 ft 453 kts 332°
2026-05-07 20:46 62.89025 -18.63153 36158 ft 453 kts 332°
2026-05-07 20:46 62.94580 -18.69719 36163 ft 454 kts 332°
2026-05-07 20:47 63.00142 -18.76300 36173 ft 454 kts 332°
2026-05-07 20:47 63.05696 -18.82910 36172 ft 454 kts 332°
2026-05-07 20:48 63.11247 -18.89565 36176 ft 454 kts 332°
2026-05-07 20:48 63.16796 -18.96250 36184 ft 453 kts 332°
2026-05-07 20:49 63.22325 -19.02943 36189 ft 453 kts 332°
2026-05-07 20:49 63.27856 -19.09661 36188 ft 453 kts 332°
2026-05-07 20:50 63.33352 -19.16340 36196 ft 453 kts 332°
2026-05-07 20:50 63.38871 -19.23090 36197 ft 453 kts 332°
2026-05-07 20:51 63.44386 -19.29885 36211 ft 452 kts 332°
2026-05-07 20:51 63.49893 -19.36699 36208 ft 452 kts 332°
2026-05-07 20:52 63.55401 -19.43532 36207 ft 452 kts 332°
2026-05-07 20:52 63.60908 -19.50378 36206 ft 452 kts 332°
2026-05-07 20:53 63.66420 -19.57256 36214 ft 453 kts 332°
2026-05-07 20:53 63.72291 -19.61830 36213 ft 449 kts 356°
2026-05-07 20:53 63.75395 -19.61405 36211 ft 448 kts 12°
2026-05-07 20:54 63.78363 -19.59281 36228 ft 449 kts 19°
2026-05-07 20:54 63.84249 -19.54525 36225 ft 450 kts 18°
2026-05-07 20:55 63.90167 -19.49813 36223 ft 450 kts 18°
2026-05-07 20:55 63.96089 -19.45091 36234 ft 451 kts 18°
2026-05-07 20:56 64.02005 -19.40332 36238 ft 451 kts 18°
2026-05-07 20:56 64.07915 -19.35553 36251 ft 450 kts 18°
2026-05-07 20:57 64.13813 -19.30749 36109 ft 451 kts 18°
2026-05-07 20:57 64.16776 -19.28326 35071 ft 452 kts 19°
2026-05-07 20:57 64.19738 -19.25908 33932 ft 452 kts 19°
2026-05-07 20:57 64.22700 -19.23492 32662 ft 450 kts 18°
2026-05-07 20:58 64.25633 -19.21085 31533 ft 442 kts 18°
2026-05-07 20:58 64.28451 -19.18754 30656 ft 426 kts 18°
2026-05-07 20:58 64.31271 -19.16422 28520 ft 435 kts 18°
2026-05-07 20:58 64.34106 -19.14078 27021 ft 429 kts 18°
2026-05-07 20:59 64.36930 -19.11743 25545 ft 437 kts 18°
2026-05-07 20:59 64.39835 -19.09339 24853 ft 446 kts 18°
2026-05-07 20:59 64.42762 -19.06909 24521 ft 447 kts 18°
2026-05-07 20:59 64.45685 -19.04477 24336 ft 446 kts 18°
2026-05-07 21:00 64.48601 -19.02047 24206 ft 445 kts 18°
2026-05-07 21:00 64.51520 -18.99607 24246 ft 446 kts 18°
2026-05-07 21:00 64.54437 -18.97157 24250 ft 446 kts 18°
2026-05-07 21:00 64.57356 -18.94699 24253 ft 446 kts 18°
2026-05-07 21:01 64.60234 -18.92266 24252 ft 446 kts 18°
2026-05-07 21:01 64.63152 -18.89795 24249 ft 446 kts 18°
2026-05-07 21:01 64.66069 -18.87323 24270 ft 445 kts 18°
2026-05-07 21:01 64.68976 -18.84849 24255 ft 445 kts 19°
2026-05-07 21:02 64.71880 -18.82374 24258 ft 444 kts 18°
2026-05-07 21:02 64.74791 -18.79899 24250 ft 445 kts 19°
2026-05-07 21:02 64.77702 -18.77417 24259 ft 445 kts 19°
2026-05-07 21:02 64.80607 -18.74933 24258 ft 445 kts 19°
2026-05-07 21:03 64.83519 -18.72436 24267 ft 445 kts 19°
2026-05-07 21:03 64.86427 -18.69933 24267 ft 445 kts 19°
2026-05-07 21:03 64.89341 -18.67413 24266 ft 445 kts 19°
2026-05-07 21:03 64.92249 -18.64892 24267 ft 445 kts 19°
2026-05-07 21:04 64.95137 -18.62388 24272 ft 445 kts 19°
2026-05-07 21:04 64.98063 -18.59851 24275 ft 445 kts 19°
2026-05-07 21:04 65.00966 -18.57326 24275 ft 445 kts 19°
2026-05-07 21:04 65.03872 -18.54788 24275 ft 445 kts 19°
2026-05-07 21:05 65.06772 -18.52245 24274 ft 445 kts 19°
2026-05-07 21:05 65.09678 -18.49687 24274 ft 445 kts 19°
2026-05-07 21:05 65.12589 -18.47126 24276 ft 446 kts 19°
2026-05-07 21:05 65.15503 -18.44561 24302 ft 447 kts 19°
2026-05-07 21:06 65.18373 -18.42031 23601 ft 432 kts 19°
2026-05-07 21:06 65.20228 -18.40390 22415 ft 427 kts 19°
2026-05-07 21:06 65.22986 -18.37944 20799 ft 419 kts 19°
2026-05-07 21:06 65.25680 -18.35545 19433 ft 408 kts 19°
2026-05-07 21:07 65.29124 -18.32472 17535 ft 397 kts 19°
2026-05-07 21:07 65.30882 -18.30861 16547 ft 392 kts 22°
2026-05-07 21:07 65.33144 -18.27353 15261 ft 386 kts 42°
2026-05-07 21:07 65.34874 -18.22502 13851 ft 377 kts 49°
2026-05-07 21:08 65.36519 -18.17579 11923 ft 379 kts 50°
2026-05-07 21:08 65.38103 -18.12610 11099 ft 371 kts 51°
2026-05-07 21:08 65.39616 -18.07998 10834 ft 336 kts 44°
2026-05-07 21:08 65.41519 -18.05028 9927 ft 323 kts 18°
2026-05-07 21:09 65.43695 -18.04035 8981 ft 315 kts
2026-05-07 21:09 65.45854 -18.04105 8077 ft 309 kts 356°
2026-05-07 21:09 65.47957 -18.04865 7314 ft 301 kts 340°
2026-05-07 21:09 65.49598 -18.07485 7398 ft 271 kts 314°
2026-05-07 21:10 65.50432 -18.11273 7512 ft 246 kts 283°
2026-05-07 21:10 65.50332 -18.15149 7693 ft 225 kts 250°
2026-05-07 21:10 65.49432 -18.18009 7824 ft 211 kts 212°
2026-05-07 21:10 65.48130 -18.18907 8613 ft 185 kts 179°
2026-05-07 21:11 65.46847 -18.18386 8490 ft 195 kts 152°
2026-05-07 21:11 65.45850 -18.16178 7887 ft 204 kts 116°
2026-05-07 21:11 65.45783 -18.09729 6833 ft 200 kts 59°
2026-05-07 21:12 65.46669 -18.07260 6490 ft 193 kts 33°
2026-05-07 21:12 65.47880 -18.06030 6097 ft 188 kts
2026-05-07 21:12 65.49184 -18.05973 5648 ft 187 kts 360°
2026-05-07 21:12 65.50484 -18.06039 5182 ft 188 kts 359°
2026-05-07 21:13 65.51792 -18.06118 4706 ft 188 kts 359°
2026-05-07 21:13 65.53091 -18.06202 4229 ft 185 kts 359°
2026-05-07 21:13 65.54366 -18.06286 3775 ft 181 kts 358°
2026-05-07 21:13 65.55615 -18.06369 3327 ft 178 kts 358°
2026-05-07 21:14 65.56846 -18.06450 2874 ft 176 kts 358°
2026-05-07 21:14 65.58039 -18.06529 2408 ft 165 kts 358°
2026-05-07 21:14 65.59122 -18.06601 1956 ft 149 kts 358°
2026-05-07 21:14 65.60129 -18.06481 1392 ft 146 kts
2026-05-07 21:15 65.61165 -18.06449 851 ft 147 kts 356°
2026-05-07 21:15 65.62099 -18.06584 611 ft 134 kts 355°
2026-05-07 21:15 65.63002 -18.06711 413 ft 129 kts 355°
2026-05-07 21:15 65.63883 -18.06865 193 ft 126 kts 354°
2026-05-07 21:16 65.64753 -18.07034 38 ft 125 kts 354°
2026-05-07 21:16 65.65503 -18.07171 17 ft 78 kts 356°
2026-05-07 21:16 65.65824 -18.07229 18 ft 32 kts 355°
2026-05-07 21:16 65.65916 -18.07284 17 ft 6 kts 21°
2026-05-07 21:17 65.65877 -18.07245 18 ft 17 kts 173°
2026-05-07 21:17 65.65688 -18.07212 20 ft 32 kts 175°
2026-05-07 21:17 65.65506 -18.07173 17 ft 18 kts 182°
2026-05-07 21:17 65.65477 -18.07372 17 ft 7 kts 265°
2026-05-07 21:18 65.65474 -18.07442 17 ft 6 kts 263°
2026-05-07 21:18 65.65481 -18.07493 17 ft 2 kts 327°
2026-05-07 21:18 65.65485 -18.07487 17 ft 1 kts 21°
2026-05-07 21:18 65.65486 -18.07482 17 ft 0 kts 39°